This is the latest recevied weather packets stored in our database for station/object DC7RY. If no packets are shown the sender has not sent any weather packets the latest 10 day(s).
| Time | Temp. | Humidity | Pressure | Rain* | Wind** | Luminosity | Snow |
|---|---|---|---|---|---|---|---|
| 1777818025 | 28.33° C | 33% | 1007.8 hPa | 0 mm | - | 198 W/m² | - |
| 1777817431 | 28.89° C | 34% | 1008 hPa | 0 mm | - | 244 W/m² | - |
| 1777816822 | 28.89° C | 31% | 1008.1 hPa | 0 mm | - | 287 W/m² | - |
| 1777816230 | 28.33° C | 28% | 1008.1 hPa | 0 mm | - | 346 W/m² | - |
| 1777815622 | 28.33° C | 29% | 1008.3 hPa | 0 mm | - | 394 W/m² | - |
| 1777815030 | 27.78° C | 30% | 1008.3 hPa | 0 mm | - | 393 W/m² | - |
| 1777814422 | 27.22° C | 29% | 1008.4 hPa | 0 mm | - | 412 W/m² | - |
| 1777813829 | 26.11° C | 30% | 1008.5 hPa | 0 mm | - | 376 W/m² | - |
| 1777813220 | 25° C | 32% | 1008.4 hPa | 0 mm | - | 435 W/m² | - |
| 1777812628 | 24.44° C | 36% | 1008.6 hPa | 0 mm | - | 219 W/m² | - |
| 1777812020 | 24.44° C | 34% | 1008.7 hPa | 0 mm | - | 215 W/m² | - |
| 1777811428 | 24.44° C | 35% | 1008.8 hPa | 0 mm | - | 246 W/m² | - |
| 1777810820 | 25° C | 34% | 1008.9 hPa | 0 mm | - | 197 W/m² | - |
| 1777810228 | 25° C | 34% | 1009 hPa | 0 mm | - | 278 W/m² | - |
| 1777809620 | 24.44° C | 37% | 1009.1 hPa | 0 mm | - | 179 W/m² | - |
| 1777809027 | 23.89° C | 36% | 1009.1 hPa | 0 mm | - | 159 W/m² | - |
| 1777808419 | 23.89° C | 36% | 1009.1 hPa | 0 mm | - | 161 W/m² | - |
| 1777807827 | 23.89° C | 36% | 1009.3 hPa | 0 mm | - | 168 W/m² | - |
| 1777807219 | 24.44° C | 37% | 1009.5 hPa | 0 mm | - | 180 W/m² | - |
| 1777806627 | 23.89° C | 35% | 1009.6 hPa | 0 mm | - | 210 W/m² | - |
| 1777806019 | 23.89° C | 38% | 1009.6 hPa | 0 mm | - | 325 W/m² | - |
| 1777805426 | 23.89° C | 37% | 1009.9 hPa | 0 mm | - | 305 W/m² | - |
| 1777804818 | 23.33° C | 37% | 1009.8 hPa | 0 mm | - | 351 W/m² | - |
| 1777804226 | 22.78° C | 37% | 1010 hPa | 0 mm | - | 283 W/m² | - |
| 1777803618 | 21.67° C | 38% | 1010.1 hPa | 0 mm | - | 320 W/m² | - |
* Rain latest hour (hover to see other rain measurements)
** Current wind speed in m/s (hover to see current wind gust speed)